Location: Plainartige
(45.6866°N, 1.7993°E)
Time: 17:49:04
(UTC+00:00)

POLYITAN 1 - Pass Details

Date: 06 July 2022
Orbit: 586 x 605 km, 98.0° (Epoch: 18 August)

Event Time Altitude Azimuth Distance (km) Brightness Sun altitude
Rises 02:05:57 0° 9° (N) 2,866 ? -15.7°
Reaches altitude 10° 02:08:09 10° 5° (N) 1,960 ? -15.5°
Maximum altitude 02:12:19 56° 288° (WNW) 724 ? -15.1°
Enters shadow 02:14:33 26° 219° (SW) 1,215 ? -14.9°
